Time,TemperatureF,DewpointF,PressureIn,WindDirection,WindDirectionDegrees,WindSpeedMPH,WindSpeedGustMPH,Humidity,HourlyPrecipIn,Conditions,Clouds,dailyrainin,SolarRadiationWatts/m^2,SoftwareType,DateUTC
2013-07-16 00:00:00,74.6,72.0,30.17,ESE,119,0.0,1.0,91,0.00,,,0.00,0,weatherlink.com 1.10,2013-07-16 04:00:00,
2013-07-16 00:15:00,74.8,72.0,30.17,ESE,119,0.0,1.0,90,0.00,,,0.00,0,weatherlink.com 1.10,2013-07-16 04:15:00,
2013-07-16 00:30:00,74.9,72.0,30.17,SE,130,0.0,2.0,89,0.00,,,0.00,0,weatherlink.com 1.10,2013-07-16 04:30:00,
2013-07-16 00:45:00,75.1,71.0,30.17,East,98,0.0,1.0,88,0.00,,,0.00,0,weatherlink.com 1.10,2013-07-16 04:45:00,
2013-07-16 01:00:00,75.2,71.0,30.17,SE,137,0.0,2.0,87,0.00,,,0.00,0,weatherlink.com 1.10,2013-07-16 05:00:00,
2013-07-16 01:15:00,75.2,71.0,30.17,SE,137,0.0,1.0,87,0.00,,,0.00,0,weatherlink.com 1.10,2013-07-16 05:15:00,
2013-07-16 01:30:00,75.0,71.0,30.17,SE,137,0.0,2.0,87,0.00,,,0.00,0,weatherlink.com 1.10,2013-07-16 05:30:00,
2013-07-16 01:45:00,75.1,71.0,30.17,East,96,0.0,1.0,87,0.00,,,0.00,0,weatherlink.com 1.10,2013-07-16 05:45:00,
2013-07-16 02:00:00,75.0,71.0,30.17,ESE,108,0.0,2.0,86,0.00,,,0.00,0,weatherlink.com 1.10,2013-07-16 06:00:00,
2013-07-16 02:15:00,74.9,71.0,30.16,ESE,108,0.0,1.0,86,0.00,,,0.00,0,weatherlink.com 1.10,2013-07-16 06:15:00,
2013-07-16 02:30:00,74.7,70.0,30.17,ESE,108,0.0,0.0,86,0.00,,,0.00,0,weatherlink.com 1.10,2013-07-16 06:30:00,
2013-07-16 02:45:00,74.4,70.0,30.17,ESE,108,0.0,2.0,87,0.00,,,0.00,0,weatherlink.com 1.10,2013-07-16 06:45:00,
2013-07-16 03:00:00,74.2,71.0,30.16,ESE,109,0.0,1.0,88,0.00,,,0.00,0,weatherlink.com 1.10,2013-07-16 07:00:00,
2013-07-16 03:15:00,74.0,71.0,30.16,NNE,18,0.0,1.0,89,0.00,,,0.00,0,weatherlink.com 1.10,2013-07-16 07:15:00,
2013-07-16 03:30:00,74.1,70.0,30.16,ENE,59,0.0,2.0,88,0.00,,,0.00,0,weatherlink.com 1.10,2013-07-16 07:30:00,
2013-07-16 03:45:00,74.1,70.0,30.16,ENE,59,0.0,1.0,87,0.00,,,0.00,0,weatherlink.com 1.10,2013-07-16 07:45:00,
2013-07-16 04:00:00,74.0,70.0,30.16,ENE,59,0.0,0.0,87,0.00,,,0.00,0,weatherlink.com 1.10,2013-07-16 08:00:00,
2013-07-16 04:15:00,73.9,70.0,30.16,NE,55,0.0,1.0,87,0.00,,,0.00,0,weatherlink.com 1.10,2013-07-16 08:15:00,
2013-07-16 04:30:00,73.7,69.0,30.16,NE,55,0.0,1.0,86,0.00,,,0.00,0,weatherlink.com 1.10,2013-07-16 08:30:00,
2013-07-16 04:45:00,73.5,69.0,30.16,ENE,57,0.0,2.0,86,0.00,,,0.00,0,weatherlink.com 1.10,2013-07-16 08:45:00,
2013-07-16 05:00:00,73.3,69.0,30.17,SE,124,0.0,1.0,86,0.00,,,0.00,0,weatherlink.com 1.10,2013-07-16 09:00:00,
2013-07-16 05:15:00,73.2,69.0,30.17,NE,53,0.0,2.0,85,0.00,,,0.00,0,weatherlink.com 1.10,2013-07-16 09:15:00,
2013-07-16 05:30:00,73.3,69.0,30.17,NNE,28,0.0,1.0,85,0.00,,,0.00,0,weatherlink.com 1.10,2013-07-16 09:30:00,
2013-07-16 05:45:00,73.2,69.0,30.17,NE,34,0.0,1.0,86,0.00,,,0.00,5,weatherlink.com 1.10,2013-07-16 09:45:00,
2013-07-16 06:01:00,73.0,69.0,30.18,NNE,29,0.0,1.0,87,0.00,,,0.00,9,weatherlink.com 1.10,2013-07-16 10:01:00,
2013-07-16 06:16:00,72.7,69.0,30.18,NNE,30,0.0,1.0,89,0.00,,,0.00,12,weatherlink.com 1.10,2013-07-16 10:16:00,
2013-07-16 06:31:00,72.8,70.0,30.18,SSW,202,0.0,2.0,89,0.00,,,0.00,16,weatherlink.com 1.10,2013-07-16 10:31:00,
2013-07-16 06:46:00,72.9,69.0,30.19,SSW,207,0.0,1.0,88,0.00,,,0.00,19,weatherlink.com 1.10,2013-07-16 10:46:00,
2013-07-16 07:01:00,73.0,70.0,30.19,SSW,207,0.0,1.0,89,0.00,,,0.00,21,weatherlink.com 1.10,2013-07-16 11:01:00,
2013-07-16 07:16:00,73.4,70.0,30.19,WNW,285,0.0,1.0,89,0.00,,,0.00,25,weatherlink.com 1.10,2013-07-16 11:16:00,
2013-07-16 07:31:00,73.8,70.0,30.19,WNW,285,0.0,1.0,89,0.00,,,0.00,30,weatherlink.com 1.10,2013-07-16 11:31:00,
2013-07-16 07:46:00,74.4,71.0,30.20,WNW,290,0.0,2.0,89,0.00,,,0.00,33,weatherlink.com 1.10,2013-07-16 11:46:00,
2013-07-16 08:01:00,75.4,71.0,30.20,North,355,0.0,3.0,86,0.00,,,0.00,37,weatherlink.com 1.10,2013-07-16 12:01:00,
2013-07-16 08:16:00,76.7,72.0,30.20,NNE,16,0.0,6.0,84,0.00,,,0.00,40,weatherlink.com 1.10,2013-07-16 12:16:00,
2013-07-16 08:31:00,78.1,73.0,30.20,NE,50,0.0,2.0,83,0.00,,,0.00,44,weatherlink.com 1.10,2013-07-16 12:31:00,
2013-07-16 08:46:00,79.5,74.0,30.20,NNE,30,0.0,1.0,82,0.00,,,0.00,47,weatherlink.com 1.10,2013-07-16 12:46:00,
2013-07-16 09:01:00,80.7,74.0,30.21,NNW,341,1.0,4.0,80,0.00,,,0.00,51,weatherlink.com 1.10,2013-07-16 13:01:00,
2013-07-16 09:16:00,81.9,74.0,30.20,NW,319,0.0,3.0,77,0.00,,,0.00,54,weatherlink.com 1.10,2013-07-16 13:16:00,
2013-07-16 09:31:00,83.3,75.0,30.20,SE,138,1.0,2.0,75,0.00,,,0.00,58,weatherlink.com 1.10,2013-07-16 13:31:00,
2013-07-16 09:46:00,85.5,76.0,30.19,North,360,0.0,1.0,73,0.00,,,0.00,617,weatherlink.com 1.10,2013-07-16 13:46:00,
2013-07-16 10:01:00,88.0,78.0,30.20,West,259,0.0,3.0,72,0.00,,,0.00,664,weatherlink.com 1.10,2013-07-16 14:01:00,
2013-07-16 10:16:00,89.3,78.0,30.19,SE,138,0.0,2.0,70,0.00,,,0.00,705,weatherlink.com 1.10,2013-07-16 14:16:00,
2013-07-16 10:31:00,90.6,77.0,30.19,SE,138,0.0,2.0,64,0.00,,,0.00,747,weatherlink.com 1.10,2013-07-16 14:31:00,
2013-07-16 10:46:00,91.2,76.0,30.19,SE,144,0.0,2.0,62,0.00,,,0.00,788,weatherlink.com 1.10,2013-07-16 14:46:00,
2013-07-16 11:01:00,92.2,78.0,30.19,SSW,205,0.0,1.0,64,0.00,,,0.00,819,weatherlink.com 1.10,2013-07-16 15:01:00,
2013-07-16 11:16:00,92.4,78.0,30.19,West,271,1.0,3.0,63,0.00,,,0.00,851,weatherlink.com 1.10,2013-07-16 15:16:00,
2013-07-16 11:31:00,93.0,77.0,30.19,SE,137,1.0,2.0,60,0.00,,,0.00,877,weatherlink.com 1.10,2013-07-16 15:31:00,
2013-07-16 11:46:00,93.2,78.0,30.19,WNW,284,1.0,3.0,62,0.00,,,0.00,902,weatherlink.com 1.10,2013-07-16 15:46:00,
2013-07-16 12:02:00,93.0,77.0,30.18,ESE,119,0.0,3.0,59,0.00,,,0.00,923,weatherlink.com 1.10,2013-07-16 16:02:00,
2013-07-16 12:17:00,93.2,78.0,30.18,WNW,298,1.0,3.0,62,0.00,,,0.00,942,weatherlink.com 1.10,2013-07-16 16:17:00,
2013-07-16 12:32:00,94.5,79.0,30.18,WNW,284,1.0,3.0,61,0.00,,,0.00,949,weatherlink.com 1.10,2013-07-16 16:32:00,
2013-07-16 12:47:00,94.8,79.0,30.18,ENE,74,2.0,6.0,61,0.00,,,0.00,962,weatherlink.com 1.10,2013-07-16 16:47:00,
2013-07-16 13:02:00,95.9,77.0,30.17,NNE,22,1.0,4.0,55,0.00,,,0.00,969,weatherlink.com 1.10,2013-07-16 17:02:00,
2013-07-16 13:17:00,96.3,76.0,30.17,East,96,0.0,3.0,53,0.00,,,0.00,967,weatherlink.com 1.10,2013-07-16 17:17:00,
2013-07-16 13:32:00,96.2,80.0,30.17,WNW,302,1.0,3.0,60,0.00,,,0.00,958,weatherlink.com 1.10,2013-07-16 17:32:00,
2013-07-16 13:47:00,95.8,78.0,30.17,East,87,0.0,3.0,56,0.00,,,0.00,976,weatherlink.com 1.10,2013-07-16 17:47:00,
2013-07-16 14:02:00,95.6,77.0,30.17,East,87,0.0,2.0,55,0.00,,,0.00,977,weatherlink.com 1.10,2013-07-16 18:02:00,
2013-07-16 14:17:00,95.7,77.0,30.16,NW,323,0.0,3.0,55,0.00,,,0.00,116,weatherlink.com 1.10,2013-07-16 18:17:00,
2013-07-16 14:32:00,95.0,77.0,30.17,SE,140,0.0,2.0,56,0.00,,,0.00,120,weatherlink.com 1.10,2013-07-16 18:32:00,
2013-07-16 14:47:00,92.4,79.0,30.16,NNE,20,0.0,3.0,65,0.00,,,0.00,902,weatherlink.com 1.10,2013-07-16 18:47:00,
2013-07-16 15:02:00,94.3,77.0,30.16,WNW,302,1.0,3.0,57,0.00,,,0.00,853,weatherlink.com 1.10,2013-07-16 19:02:00,
2013-07-16 15:17:00,95.4,79.0,30.16,ENE,78,0.0,4.0,59,0.00,,,0.00,826,weatherlink.com 1.10,2013-07-16 19:17:00,
2013-07-16 15:32:00,96.1,76.0,30.16,NW,308,1.0,3.0,53,0.00,,,0.00,782,weatherlink.com 1.10,2013-07-16 19:32:00,
2013-07-16 15:47:00,96.2,76.0,30.16,SSE,154,1.0,4.0,52,0.00,,,0.00,737,weatherlink.com 1.10,2013-07-16 19:47:00,
2013-07-16 16:02:00,96.0,76.0,30.16,NNE,25,1.0,5.0,53,0.00,,,0.00,701,weatherlink.com 1.10,2013-07-16 20:02:00,
2013-07-16 16:17:00,96.1,77.0,30.16,North,5,0.0,2.0,54,0.00,,,0.00,656,weatherlink.com 1.10,2013-07-16 20:17:00,
2013-07-16 16:32:00,95.8,75.0,30.16,ENE,69,0.0,3.0,52,0.00,,,0.00,603,weatherlink.com 1.10,2013-07-16 20:32:00,
2013-07-16 16:47:00,95.8,77.0,30.16,NNW,340,0.0,2.0,54,0.00,,,0.00,552,weatherlink.com 1.10,2013-07-16 20:47:00,
2013-07-16 17:02:00,95.8,75.0,30.16,NNE,26,0.0,3.0,52,0.00,,,0.00,508,weatherlink.com 1.10,2013-07-16 21:02:00,
2013-07-16 17:17:00,95.5,76.0,30.15,East,81,0.0,3.0,54,0.00,,,0.00,468,weatherlink.com 1.10,2013-07-16 21:17:00,
2013-07-16 17:32:00,95.1,76.0,30.15,East,80,0.0,1.0,55,0.00,,,0.00,420,weatherlink.com 1.10,2013-07-16 21:32:00,
2013-07-16 17:47:00,94.4,77.0,30.15,East,97,0.0,2.0,58,0.00,,,0.00,357,weatherlink.com 1.10,2013-07-16 21:47:00,
2013-07-16 18:02:00,92.5,76.0,30.15,East,97,0.0,0.0,59,0.00,,,0.00,46,weatherlink.com 1.10,2013-07-16 22:02:00,
2013-07-16 18:17:00,89.7,77.0,30.15,East,97,0.0,0.0,66,0.00,,,0.00,37,weatherlink.com 1.10,2013-07-16 22:17:00,
2013-07-16 18:32:00,87.2,76.0,30.15,East,97,0.0,0.0,70,0.00,,,0.00,32,weatherlink.com 1.10,2013-07-16 22:32:00,
2013-07-16 18:47:00,85.6,77.0,30.15,East,97,0.0,0.0,75,0.00,,,0.00,28,weatherlink.com 1.10,2013-07-16 22:47:00,
2013-07-16 19:02:00,84.3,75.0,30.15,East,97,0.0,1.0,74,0.00,,,0.00,25,weatherlink.com 1.10,2013-07-16 23:02:00,
2013-07-16 19:17:00,83.0,75.0,30.15,East,97,0.0,0.0,77,0.00,,,0.00,21,weatherlink.com 1.10,2013-07-16 23:17:00,
2013-07-16 19:32:00,81.9,76.0,30.16,East,97,0.0,0.0,81,0.00,,,0.00,18,weatherlink.com 1.10,2013-07-16 23:32:00,
2013-07-16 19:47:00,81.0,75.0,30.16,East,97,0.0,0.0,83,0.00,,,0.00,12,weatherlink.com 1.10,2013-07-16 23:47:00,
2013-07-16 20:02:00,80.3,76.0,30.16,East,97,0.0,0.0,85,0.00,,,0.00,7,weatherlink.com 1.10,2013-07-17 00:02:00,
2013-07-16 20:17:00,79.5,75.0,30.17,East,97,0.0,0.0,87,0.00,,,0.00,0,weatherlink.com 1.10,2013-07-17 00:17:00,
2013-07-16 20:32:00,78.9,76.0,30.17,East,97,0.0,0.0,89,0.00,,,0.00,0,weatherlink.com 1.10,2013-07-17 00:32:00,
2013-07-16 20:47:00,78.4,75.0,30.17,East,97,0.0,0.0,90,0.00,,,0.00,0,weatherlink.com 1.10,2013-07-17 00:47:00,
2013-07-16 21:02:00,77.7,75.0,30.18,East,97,0.0,0.0,90,0.00,,,0.00,0,weatherlink.com 1.10,2013-07-17 01:02:00,
2013-07-16 21:17:00,77.1,74.0,30.18,East,97,0.0,0.0,90,0.00,,,0.00,0,weatherlink.com 1.10,2013-07-17 01:17:00,
2013-07-16 21:32:00,76.4,73.0,30.18,East,97,0.0,0.0,90,0.00,,,0.00,0,weatherlink.com 1.10,2013-07-17 01:32:00,
2013-07-16 21:47:00,75.9,73.0,30.18,East,97,0.0,0.0,89,0.00,,,0.00,0,weatherlink.com 1.10,2013-07-17 01:47:00,
2013-07-16 22:02:00,75.7,73.0,30.18,East,97,0.0,0.0,90,0.00,,,0.00,0,weatherlink.com 1.10,2013-07-17 02:02:00,
2013-07-16 22:17:00,75.6,73.0,30.19,East,97,0.0,0.0,91,0.00,,,0.00,0,weatherlink.com 1.10,2013-07-17 02:17:00,
2013-07-16 22:33:00,75.4,73.0,30.19,East,97,0.0,0.0,91,0.00,,,0.00,0,weatherlink.com 1.10,2013-07-17 02:33:00,
2013-07-16 22:48:00,75.2,73.0,30.19,East,96,0.0,1.0,91,0.00,,,0.00,0,weatherlink.com 1.10,2013-07-17 02:48:00,
2013-07-16 23:03:00,75.0,72.0,30.19,East,96,0.0,0.0,91,0.00,,,0.00,0,weatherlink.com 1.10,2013-07-17 03:03:00,
2013-07-16 23:18:00,74.7,72.0,30.19,East,96,0.0,0.0,90,0.00,,,0.00,0,weatherlink.com 1.10,2013-07-17 03:18:00,
2013-07-16 23:33:00,74.4,72.0,30.19,East,96,0.0,0.0,91,0.00,,,0.00,0,weatherlink.com 1.10,2013-07-17 03:33:00,
2013-07-16 23:48:00,74.5,72.0,30.19,East,96,0.0,1.0,90,0.00,,,0.00,0,weatherlink.com 1.10,2013-07-17 03:48:00,